Find ARVAKER 1

NORAD ID: 63252 Int'l Des: 2025-052 Owner: NSC Country: N operational
LEOCIRCULARRETROGRADESSO

現在のビュー

3D地球を読み込み中...

About ARVAKER 1

ARVAKER 1 (NORAD 63252) is a satellite launched Mar 15, 2025 by NSC of N. It operates in LEO, CIRCULAR, RETROGRADE, SSO orbit with a mass of 100.00 kg.

次回通過

Passes for default location (London). Set your location on the main map for personalized predictions.

高度履歴

Loading altitude history...

軌道要素

1 63252U 25052AU 26194.66076309 .00001102 00000-0 10684-3 0 9997
2 63252 97.6843 85.3141 0003843 112.6942 247.4685 14.94659349 72562
Epoch: Jul 13, 2026 • Age: 10 hours

現在のステータス

高度 586.8 km
遠地点 / 近地点 N/A
速度 7.57 km/s
衛星直下点 39.82°N, 51.63°W
打ち上げ日 Mar 15, 2025
運用期間 1.3 years
タイプ other

技術仕様

分類 Payload
質量 100.00 kg
乾燥質量 100.00 kg
総質量 100.00 kg
長さ 0.40 m
直径 0.20 m
スパン 1.00 m
形状 Box+2 pan
製造者 NANAV
バスタイプ MP42
フェーズステータス In Orbit
所有者/国 NSC/N

Most Searched